Location: *
(46.3500°N, 10.9000°E)
Time: 23:14:08
(UTC+00:00)

Vanguard 2 - Pass Details

Date: 20 April 2021
Orbit: 552 x 2938 km, 32.9° (Epoch: 12 May)

Event Time Altitude Azimuth Distance (km) Brightness Sun altitude
Rises 12:17:00 0° 238° (WSW) 6,640 12.8 53.0°
Reaches altitude 10° 12:22:09 10° 232° (SW) 5,421 12.6 52.6°
Maximum altitude 12:35:32 38° 173° (S) 2,839 11.6 51.4°
Drops below altitude 10° 12:44:33 10° 109° (ESE) 3,668 11.0 50.5°
Sets 12:47:18 0° 101° (E) 4,354 11.2 50.3°
